timestamp,wind_dir_avg,wind_spd_avg,wind_spd_max_dir,wind_spd_gust,battery_voltage,lat,long
2023-08-17 00:04:00+00:00,43.0,7.78,40.0,8.71,12.41,47.59359,-54.27349
2023-08-17 00:14:00+00:00,48.0,7.8,47.0,8.39,12.41,47.59359,-54.27349
2023-08-17 00:24:00+00:00,53.0,8.11,45.0,8.87,12.41,47.59359,-54.27349
2023-08-17 00:34:00+00:00,53.0,7.77,58.0,8.7,12.41,47.59359,-54.27349
2023-08-17 00:44:00+00:00,58.0,7.72,56.0,8.24,12.41,47.59359,-54.27349
2023-08-17 00:54:00+00:00,65.0,7.55,65.0,8.09,12.41,47.59359,-54.27349
2023-08-17 01:04:00+00:00,58.0,7.32,59.0,8.45,12.41,47.59359,-54.27349
2023-08-17 01:14:01+00:00,54.0,7.12,59.0,8.01,12.41,47.59359,-54.27349
2023-08-17 01:24:01+00:00,60.0,6.32,59.0,7.25,12.41,47.59359,-54.27349
2023-08-17 01:34:01+00:00,63.0,6.51,58.0,8.06,12.41,47.59359,-54.27349
2023-08-17 01:44:01+00:00,57.0,7.33,56.0,8.03,12.41,47.59359,-54.27349
2023-08-17 01:54:01+00:00,60.0,5.79,56.0,6.96,12.41,47.59359,-54.27349
2023-08-17 02:04:01+00:00,49.0,6.86,49.0,7.58,12.41,47.59359,-54.27349
2023-08-17 02:14:00+00:00,49.0,6.65,43.0,7.43,12.41,47.59359,-54.27349
2023-08-17 02:24:00+00:00,52.0,5.43,54.0,6.74,12.41,47.59359,-54.27349
2023-08-17 02:34:00+00:00,52.0,5.95,55.0,6.7,12.41,47.59359,-54.27349
2023-08-17 02:44:00+00:00,45.0,5.63,52.0,6.39,12.41,47.59359,-54.27349
2023-08-17 02:54:00+00:00,40.0,7.42,38.0,8.46,12.41,47.59359,-54.27349
2023-08-17 03:04:00+00:00,53.0,6.41,48.0,8.11,12.41,47.59359,-54.27349
2023-08-17 03:14:01+00:00,54.0,7.2,55.0,7.93,12.41,47.59359,-54.27349
2023-08-17 03:24:01+00:00,51.0,4.93,54.0,6.0,12.41,47.59359,-54.27349
2023-08-17 03:34:01+00:00,56.0,4.93,59.0,6.11,12.41,47.59359,-54.27349
2023-08-17 03:44:01+00:00,61.0,4.73,62.0,5.82,12.41,47.59359,-54.27349
2023-08-17 03:54:01+00:00,52.0,5.02,50.0,5.78,12.41,47.59359,-54.27349
2023-08-17 04:04:01+00:00,9.0,3.44,12.0,3.97,12.41,47.59359,-54.27349
2023-08-17 04:14:01+00:00,20.0,4.2,22.0,5.25,12.33,47.59359,-54.27349
2023-08-17 04:24:01+00:00,38.0,4.03,41.0,4.88,12.33,47.59359,-54.27349
2023-08-17 04:34:01+00:00,28.0,4.04,22.0,4.55,12.33,47.59359,-54.27349
2023-08-17 04:44:01+00:00,38.0,4.96,35.0,5.71,12.33,47.59359,-54.27349
2023-08-17 04:54:01+00:00,26.0,3.01,29.0,4.2,12.33,47.59359,-54.27349
2023-08-17 05:04:01+00:00,4.0,3.67,0.0,4.23,12.33,47.59359,-54.27349
2023-08-17 05:14:00+00:00,14.0,3.94,12.0,4.85,12.41,47.59359,-54.27349
2023-08-17 05:24:00+00:00,11.0,4.56,16.0,5.24,12.41,47.59359,-54.27349
2023-08-17 05:34:00+00:00,6.0,3.98,8.0,4.68,12.41,47.59359,-54.27349
2023-08-17 05:44:00+00:00,15.0,3.32,13.0,3.72,12.41,47.59359,-54.27349
2023-08-17 05:54:00+00:00,7.0,3.27,9.0,3.71,12.41,47.59359,-54.27349
2023-08-17 06:04:00+00:00,14.0,3.46,14.0,3.94,12.41,47.59359,-54.27349
2023-08-17 06:14:01+00:00,17.0,3.87,13.0,4.37,12.33,47.59359,-54.27349
2023-08-17 06:24:01+00:00,0.0,3.17,358.0,3.69,12.33,47.59359,-54.27349
2023-08-17 06:34:01+00:00,337.0,3.3,341.0,4.03,12.33,47.59359,-54.27349
2023-08-17 06:44:01+00:00,349.0,4.41,349.0,4.98,12.33,47.59359,-54.27349
2023-08-17 06:54:01+00:00,4.0,3.96,357.0,4.82,12.33,47.59359,-54.27349
2023-08-17 07:04:01+00:00,0.0,4.15,0.0,4.73,12.33,47.59359,-54.27349
2023-08-17 07:14:00+00:00,6.0,3.47,3.0,3.93,12.25,47.59359,-54.27349
2023-08-17 07:24:00+00:00,356.0,3.09,3.0,3.87,12.25,47.59359,-54.27349
2023-08-17 07:34:00+00:00,340.0,2.57,330.0,3.08,12.25,47.59359,-54.27349
2023-08-17 07:44:00+00:00,352.0,3.03,348.0,3.6,12.25,47.59359,-54.27349
2023-08-17 07:54:00+00:00,0.0,3.75,356.0,4.53,12.25,47.59359,-54.27349
2023-08-17 08:04:00+00:00,350.0,4.39,346.0,5.09,12.25,47.59359,-54.27349
2023-08-17 08:14:00+00:00,346.0,3.57,349.0,4.28,12.25,47.59359,-54.27349
2023-08-17 08:24:00+00:00,347.0,3.58,346.0,4.38,12.25,47.59359,-54.27349
2023-08-17 08:34:00+00:00,347.0,3.68,352.0,4.24,12.25,47.59359,-54.27349
2023-08-17 08:44:00+00:00,352.0,3.14,353.0,4.02,12.25,47.59359,-54.27349
2023-08-17 08:54:00+00:00,10.0,3.09,22.0,3.71,12.25,47.59359,-54.27349
2023-08-17 09:04:00+00:00,29.0,2.95,32.0,3.67,12.25,47.59359,-54.27349
2023-08-17 09:14:00+00:00,31.0,2.5,31.0,3.55,12.25,47.59359,-54.27349
2023-08-17 09:24:00+00:00,50.0,1.01,8.0,2.24,12.25,47.59359,-54.27349
2023-08-17 09:34:00+00:00,31.0,2.23,45.0,3.11,12.25,47.59359,-54.27349
2023-08-17 09:44:00+00:00,357.0,3.65,0.0,4.26,12.25,47.59359,-54.27349
2023-08-17 09:54:00+00:00,346.0,4.08,344.0,4.65,12.25,47.59359,-54.27349
2023-08-17 10:04:00+00:00,348.0,4.02,347.0,4.46,12.25,47.59359,-54.27349
2023-08-17 10:14:00+00:00,354.0,2.87,348.0,3.49,12.33,47.59359,-54.27349
2023-08-17 10:24:00+00:00,0.0,2.66,7.0,3.04,12.33,47.59359,-54.27349
2023-08-17 10:34:00+00:00,18.0,2.78,32.0,3.54,12.33,47.59359,-54.27349
2023-08-17 10:44:00+00:00,11.0,2.6,17.0,3.1,12.33,47.59359,-54.27349
2023-08-17 10:54:00+00:00,25.0,2.18,42.0,3.08,12.33,47.59359,-54.27349
2023-08-17 11:04:00+00:00,37.0,1.89,37.0,2.3,12.33,47.59359,-54.27349
2023-08-17 11:14:00+00:00,17.0,2.38,15.0,2.77,13.29,47.59359,-54.27349
2023-08-17 11:24:00+00:00,27.0,2.43,17.0,3.23,13.29,47.59359,-54.27349
2023-08-17 11:34:00+00:00,25.0,2.29,33.0,2.69,13.29,47.59359,-54.27349
2023-08-17 11:44:00+00:00,74.0,3.26,72.0,3.68,13.29,47.59359,-54.27349
2023-08-17 11:54:00+00:00,59.0,2.29,62.0,2.69,13.29,47.59359,-54.27349
2023-08-17 12:04:00+00:00,58.0,1.95,54.0,2.27,13.29,47.59359,-54.27349
2023-08-17 12:14:00+00:00,39.0,0.78,47.0,1.08,13.6,47.59359,-54.27349
2023-08-17 12:24:00+00:00,45.0,2.03,41.0,2.51,13.6,47.59359,-54.27349
2023-08-17 12:34:00+00:00,28.0,1.32,37.0,1.79,13.6,47.59359,-54.27349
2023-08-17 12:44:00+00:00,17.0,1.13,352.0,1.48,13.6,47.59359,-54.27349
2023-08-17 12:54:00+00:00,61.0,1.87,60.0,2.29,13.6,47.59359,-54.27349
2023-08-17 13:04:00+00:00,61.0,1.56,55.0,2.4,13.6,47.59359,-54.27349
2023-08-17 13:14:00+00:00,142.0,0.82,119.0,1.89,14.32,47.59359,-54.27349
2023-08-17 13:24:00+00:00,75.0,1.14,53.0,1.8,14.32,47.59359,-54.27349
2023-08-17 13:34:00+00:00,72.0,0.95,64.0,1.41,14.32,47.59359,-54.27349
2023-08-17 13:44:00+00:00,23.0,1.57,27.0,1.91,14.32,47.59359,-54.27349
2023-08-17 13:54:00+00:00,336.0,0.82,345.0,1.32,14.32,47.59359,-54.27349
2023-08-17 14:04:00+00:00,309.0,1.62,305.0,2.18,14.32,47.59359,-54.27349
2023-08-17 14:14:00+00:00,311.0,2.52,311.0,3.59,13.68,47.59359,-54.27349
2023-08-17 14:24:00+00:00,287.0,1.87,285.0,2.35,13.68,47.59359,-54.27349
2023-08-17 14:34:00+00:00,297.0,1.61,277.0,2.01,13.68,47.59359,-54.27349
2023-08-17 14:44:00+00:00,253.0,1.3,248.0,1.59,13.68,47.59359,-54.27349
2023-08-17 14:54:00+00:00,254.0,0.98,255.0,1.24,13.68,47.59359,-54.27349
2023-08-17 15:04:00+00:00,180.0,0.93,199.0,1.24,13.68,47.59359,-54.27349
2023-08-17 15:14:00+00:00,178.0,1.29,182.0,1.5,13.92,47.59359,-54.27349
2023-08-17 15:24:00+00:00,183.0,2.06,184.0,2.49,13.92,47.59359,-54.27349
2023-08-17 15:34:00+00:00,192.0,2.57,193.0,2.96,13.92,47.59359,-54.27349
2023-08-17 15:44:00+00:00,210.0,3.41,211.0,3.8,13.92,47.59359,-54.27349
2023-08-17 15:54:00+00:00,209.0,3.6,212.0,4.01,13.92,47.59359,-54.27349
2023-08-17 16:04:00+00:00,212.0,3.49,214.0,4.2,13.92,47.59359,-54.27349
2023-08-17 16:14:01+00:00,222.0,4.74,222.0,5.58,13.6,47.59359,-54.27349
2023-08-17 16:24:01+00:00,221.0,5.08,219.0,5.69,13.6,47.59359,-54.27349
2023-08-17 16:34:01+00:00,212.0,5.09,210.0,6.03,13.6,47.59359,-54.27349
2023-08-17 16:44:01+00:00,207.0,5.14,206.0,5.51,13.6,47.59359,-54.27349
2023-08-17 16:54:01+00:00,210.0,5.24,209.0,5.8,13.6,47.59359,-54.27349
2023-08-17 17:04:01+00:00,209.0,5.93,211.0,6.46,13.6,47.59359,-54.27349
2023-08-17 17:14:00+00:00,211.0,5.66,210.0,5.99,14.32,47.59359,-54.27349
2023-08-17 17:24:00+00:00,208.0,5.6,208.0,5.96,14.32,47.59359,-54.27349
2023-08-17 17:34:00+00:00,210.0,5.74,211.0,6.35,14.32,47.59359,-54.27349
2023-08-17 17:44:00+00:00,210.0,6.45,210.0,6.92,14.32,47.59359,-54.27349
2023-08-17 17:54:00+00:00,216.0,7.3,226.0,8.88,14.32,47.59359,-54.27349
2023-08-17 18:04:00+00:00,210.0,6.81,217.0,7.44,14.32,47.59359,-54.27349
2023-08-17 18:14:00+00:00,207.0,6.81,210.0,7.12,14.16,47.59359,-54.27349
2023-08-17 18:24:00+00:00,202.0,6.89,200.0,7.41,14.16,47.59359,-54.27349
2023-08-17 18:34:00+00:00,207.0,6.82,214.0,7.54,14.16,47.59359,-54.27349
2023-08-17 18:44:00+00:00,215.0,7.37,219.0,8.49,14.16,47.59359,-54.27349
2023-08-17 18:54:00+00:00,213.0,7.61,225.0,9.97,14.16,47.59359,-54.27349
2023-08-17 19:04:00+00:00,211.0,7.99,219.0,8.88,14.16,47.59359,-54.27349
2023-08-17 19:14:00+00:00,202.0,7.21,205.0,7.94,13.76,47.59359,-54.27349
2023-08-17 19:24:00+00:00,204.0,7.85,212.0,8.65,13.76,47.59359,-54.27349
2023-08-17 19:34:00+00:00,204.0,6.94,211.0,7.98,13.76,47.59359,-54.27349
2023-08-17 19:44:00+00:00,215.0,7.47,226.0,9.42,13.76,47.59359,-54.27349
2023-08-17 19:54:00+00:00,211.0,7.17,218.0,8.36,13.76,47.59359,-54.27349
2023-08-17 20:04:00+00:00,219.0,9.29,232.0,11.51,13.76,47.59359,-54.27349
2023-08-17 20:14:00+00:00,217.0,8.7,227.0,10.73,13.53,47.59359,-54.27349
2023-08-17 20:24:00+00:00,220.0,9.32,228.0,11.31,13.53,47.59359,-54.27349
2023-08-17 20:34:00+00:00,218.0,8.9,230.0,11.68,13.53,47.59359,-54.27349
2023-08-17 20:44:00+00:00,225.0,10.46,230.0,12.0,13.53,47.59359,-54.27349
2023-08-17 20:54:00+00:00,218.0,9.17,228.0,11.06,13.53,47.59359,-54.27349
2023-08-17 21:04:00+00:00,224.0,9.75,231.0,11.83,13.53,47.59359,-54.27349
2023-08-17 21:14:00+00:00,224.0,10.65,232.0,12.19,13.37,47.59359,-54.27349
2023-08-17 21:24:00+00:00,223.0,9.9,231.0,11.47,13.37,47.59359,-54.27349
2023-08-17 21:34:00+00:00,220.0,8.49,227.0,10.17,13.37,47.59359,-54.27349
2023-08-17 21:44:00+00:00,224.0,9.83,230.0,12.04,13.37,47.59359,-54.27349
2023-08-17 21:54:00+00:00,221.0,9.03,228.0,10.95,13.37,47.59359,-54.27349
2023-08-17 22:04:00+00:00,221.0,9.5,229.0,11.61,13.37,47.59359,-54.27349
2023-08-17 22:14:00+00:00,221.0,7.8,228.0,9.76,13.13,47.59359,-54.27349
2023-08-17 22:24:00+00:00,224.0,8.54,229.0,10.53,13.13,47.59359,-54.27349
2023-08-17 22:34:00+00:00,223.0,7.62,224.0,9.06,13.13,47.59359,-54.27349
2023-08-17 22:44:00+00:00,228.0,7.24,228.0,8.18,13.13,47.59359,-54.27349
2023-08-17 22:54:00+00:00,229.0,6.03,226.0,7.02,13.13,47.59359,-54.27349
2023-08-17 23:04:00+00:00,239.0,6.48,237.0,7.08,13.13,47.59359,-54.27349
2023-08-17 23:14:00+00:00,232.0,5.91,240.0,7.46,12.57,47.59359,-54.27349
2023-08-17 23:24:00+00:00,231.0,5.48,245.0,6.79,12.57,47.59359,-54.27349
2023-08-17 23:34:00+00:00,229.0,5.55,230.0,6.35,12.57,47.59359,-54.27349
2023-08-17 23:44:00+00:00,242.0,5.37,242.0,6.08,12.57,47.59359,-54.27349
2023-08-17 23:54:00+00:00,236.0,5.38,238.0,6.56,12.57,47.59359,-54.27349
